Home > Weather > Black Mountain > Past weeks

Flag for USA Past Weather in Black Mountain, North Carolina, USA — Yesterday and Last 2 Weeks

Now
83 °F

Sunny.


Feels Like: 86 °F
Forecast: 68 / 85 °F
Wind: 6 mph from North

Location: Asheville Regional Airport

Current Time: Jul 25, 2016 at 12:00:06 PM

Latest Report: Jul 25, 2016 at 10:54 AM


Visibility: 10 mi

Pressure: 30.07 "Hg (27.68 "Hg at 729m altitude)

Humidity: 61%

Dew Point: 68 °F

Location of Black MountainLocation

Past Weather in Black Mountain — Graph

°F

Black Mountain Temperature Yesterday

Maximum temperature yesterday: 89 °F (at 2:54 PM)
Minimum temperature yesterday: 68 °F (at 4:54 AM)
Average temperature yesterday: 78 °F

High & Low Weather Summary for the Past Weeks

 TemperatureHumidityPressure
High91 °F (Jul 20, 3:54 PM)97% (Jul 14, 6:54 AM)30.32 "Hg (Jul 14, 6:54 AM)
Low63 °F (Jul 17, 3:01 AM)32% (Jul 20, 3:54 PM)29.98 "Hg (Jul 10, 4:54 PM)
Average74 °F76%30.11 "Hg
* Reported Jul 10 10:54 AM — Jul 25 10:54 AM, Black Mountain, Weather by CustomWeather, © 2016

Note: Actual official high and low records may vary slightly from our data, if they occured in-between our weather recording intervals... More about our weather records

Advertising

Black Mountain Weather History for the Previous 24 Hours

Scroll right to see more
 ConditionsComfort  
Time TempWeatherWind HumidityBarometerVisibility
10:54 AM
Mon, Jul 25
83 °FSunny.6 mph61%30.07 "Hg10 mi
9:54 AM79 °FSunny.3 mph69%30.08 "Hg10 mi
8:54 AM74 °FSunny.No wind79%30.09 "Hg10 mi
7:54 AM71 °FSunny.No wind87%30.09 "Hg10 mi
6:54 AM69 °FClear.6 mph90%30.07 "Hg9 mi
5:54 AM69 °FClear.3 mph90%30.06 "Hg10 mi
4:54 AM69 °FClear.3 mph90%30.05 "Hg10 mi
3:54 AM70 °FClear.No wind90%30.03 "Hg10 mi
2:54 AM70 °FClear.No wind90%30.03 "Hg10 mi
1:54 AM72 °FClear.No wind87%30.03 "Hg10 mi
12:54 AM73 °FClear.No wind84%30.04 "Hg10 mi
11:54 PM
Sun, Jul 24
75 °FClear.3 mph82%30.05 "Hg10 mi
10:54 PM75 °FClear.No wind82%30.06 "Hg10 mi
9:54 PM78 °FClear.5 mph74%30.05 "Hg10 mi
8:54 PM81 °FSunny.No wind65%30.03 "Hg10 mi
7:54 PM85 °FSunny.No wind53%30.01 "Hg10 mi
6:54 PM86 °FSunny.8 mph53%30.00 "Hg10 mi
5:54 PM88 °FScattered clouds.9 mph50%30.01 "Hg10 mi
4:54 PM88 °FBroken clouds.7 mph48%30.01 "Hg10 mi
3:54 PM89 °FSunny.10 mph48%30.01 "Hg10 mi
2:54 PM89 °FSunny.N/A43%30.01 "Hg10 mi
1:54 PM88 °FSunny.7 mph45%30.03 "Hg10 mi
12:54 PM86 °FSunny.N/A51%30.05 "Hg10 mi
Weather by CustomWeather, © 2016

See weather overviewHow to use our weather pages